Location: Unspecified
(34.4950°S, 58.5160°W)
Time: 21:14:27
(UTC+00:00)

Daily predictions for brighter satellites

Satellite Brightness Start Highest point End
(mag) Time Altitude Azimuth Time Altitude Azimuth Time Altitude Azimuth
Cosmos 158 Rocket 4.0 23:24:06 10° N 23:29:22 67° ENE 23:34:33 10° SSE
Cosmos 2369 Rocket 3.3 23:25:30 10° SSW 23:31:01 48° WNW 23:36:28 10° N
SJ-11-01 4.3 23:26:42 10° SSE 23:31:31 72° ENE 23:36:14 10° N
Cosmos 405 2.9 23:28:29 10° N 23:31:58 67° E 23:35:29 10° SSE
SL-08 RB Rocket 4.2 23:31:45 10° SSE 23:36:11 40° E 23:40:32 10° NNE
CSL-04 Rocket 3.9 23:31:32 10° SSE 23:36:41 48° E 23:41:49 10° N
Meteor 2-15 4.5 23:31:16 10° N 23:37:23 76° E 23:43:31 10° S
H-2A R/B 2.0 23:35:32 10° SSE 23:40:33 87° WSW 23:45:29 10° NNW
Cosmos 2221 4.3 23:39:19 10° ENE 23:41:50 15° E 23:44:19 10° SE
Meteor 1-27 4.5 23:37:12 10° NNE 23:42:33 48° E 23:48:01 10° SSE
Cosmos 1833 Rocket 4.4 23:42:25 10° ENE 23:44:26 12° E 23:46:27 10° ESE
Cosmos 1553 Rocket 4.0 23:43:57 10° N 23:50:09 81° E 23:56:20 10° S
